Location: Grand Rapids
(42.9630°N, 85.6680°W)
Time: 02:44:25
(UTC-04:00)

S-56A Canister/Altair - Pass Details

Date: 06 June 2024
Orbit: 637 x 2489 km, 38.9° (Epoch: 21 June)

Event Time Altitude Azimuth Distance (km) Brightness Sun altitude
Rises 02:32:00 0° 222° (SW) 5,616 - -23.3°
Reaches altitude 10° 02:35:35 10° 217° (SW) 4,793 - -23.2°
Exits shadow 02:41:50 31° 201° (SSW) 3,584 10.3 -22.9°
Maximum altitude 02:48:52 49° 149° (SSE) 3,002 10.2 -22.5°
Drops below altitude 10° 03:02:33 10° 81° (E) 4,949 12.0 -21.7°
Sets 03:06:19 0° 76° (ENE) 5,807 12.5 -21.5°
